Location: Ferintosh
(52.7647°N, 112.9692°W)
Time: 14:13:39
(UTC+00:00)

Transit 2A Rocket - Pass Details

Date: 21 May 2024
Orbit: 583 x 910 km, 66.7° (Epoch: 22 June)

Event Time Altitude Azimuth Distance (km) Brightness Sun altitude
Rises 19:27:16 0° 319° (NW) 3,367 8.1 57.6°
Reaches altitude 10° 19:29:39 10° 321° (NW) 2,473 7.5 57.6°
Maximum altitude 19:35:28 83° 50° (NE) 897 6.4 57.6°
Drops below altitude 10° 19:41:32 10° 138° (SE) 2,586 8.2 57.5°
Sets 19:44:05 0° 140° (SE) 3,531 8.7 57.5°
